Location: Aufkirchen
(47.9603°N, 11.3653°E)
Time: 12:07:58
(UTC+01:00)

deb Explorer IX - Pass Details

Date: 04 December 2020
Orbit: 536 x 1104 km, 38.8° (Epoch: 19 January)

Event Time Altitude Azimuth Distance (km) Brightness Sun altitude
Rises 17:18:04 0° 259° (WSW) 3,693 ? -9.0°
Reaches altitude 10° 17:21:08 10° 250° (WSW) 2,656 ? -9.5°
Maximum altitude 17:26:40 33° 189° (S) 1,401 ? -10.3°
Drops below altitude 10° 17:31:30 10° 127° (SE) 2,296 ? -11.1°
Enters shadow 17:33:27 - 119° (ESE) 2,943 ? -11.4°
